SCP
2 2 2 1 1 0 0 0 0 0 0 0 0 0 0 0 0 0 0 0 0 0 0 0 0 0 0 0 0 0 0 0 0 0 0 0 0 1 1 1 1 1 1 1 1 1 1 1 1
2 2 2 1 0 0 0 0 0 0 0 0 0 0 0 0 0 0 0 0 0 0 0 0 0 0 0 0 0 0 0 0 0 0 0 0 0 0 1 1 1 1 1 1 1 1 1 1 1
2 2 1 1 0 0 0 0 0 0 0 0 0 0 0 0 0 0 0 0 0 0 0 0 0 0 0 0 0 0 0 0 0 0 0 0 0 0 1 1 1 1 1 1 1 2 2 1 1
2 2 1 0 0 0 0 0 0 0 0 0 0 0 0 0 0 0 0 0 0 0 0 0 0 0 0 0 0 0 0 0 0 0 0 1 1 1 1 1 1 1 1 1 1 2 2 1 1
1 1 0 0 0 0 0 0 0 0 0 0 0 0 0 0 0 0 0 0 0 0 0 0 0 0 0 0 0 0 1 1 1 0 0 1 1 1 1 1 1 1 1 1 1 1 1 1 1
1 0 0 0 0 0 0 0 0 0 0 0 0 0 0 0 0 0 0 0 0 0 0 0 0 0 1 0 0 1 1 1 1 1 1 1 1 1 1 1 1 1 1 1 1 1 1 1 1
1 0 0 0 0 0 0 0 0 0 0 0 0 0 0 0 0 0 0 0 0 0 0 0 0 0 1 1 1 1 1 2 1 1 1 1 1 1 1 1 1 1 1 1 1 1 1 1 1
0 0 0 0 0 0 0 0 0 0 0 0 0 0 0 0 0 0 1 0 0 0 0 0 0 0 0 0 1 1 1 1 1 1 1 1 1 1 1 1 1 1 2 2 2 2 2 2 2
0 0 0 0 0 0 0 1 1 1 1 0 0 0 0 0 1 1 1 1 1 0 0 0 0 0 0 0 1 1 1 1 1 1 1 2 2 1 1 1 1 1 2 2 2 2 2 2 2
0 0 0 0 0 0 0 1 1 1 1 1 0 0 0 1 1 1 1 1 1 1 1 0 0 0 0 0 0 1 1 1 1 1 1 1 1 1 1 1 1 2 2 2 2 2 2 2 2
0 0 0 0 0 0 0 1 1 1 1 1 1 1 1 1 1 1 2 2 2 2 1 1 1 1 1 0 0 1 1 1 1 1 1 1 1 1 1 1 1 2 2 2 2 2 2 2 2
0 0 0 0 0 0 0 0 1 1 1 1 1 1 1 1 2 2 2 2 2 2 1 1 1 1 1 1 1 1 1 1 1 2 2 2 2 2 2 2 1 1 1 1 2 2 2 2 2
0 0 0 0 0 1 1 1 1 1 1 2 2 2 2 2 2 2 2 2 2 1 1 1 1 1 1 1 1 1 1 1 1 2 2 2 2 2 2 2 1 1 1 2 2 2 2 2 2
0 0 0 0 0 1 1 1 1 1 2 2 3 2 2 2 2 2 2 1 1 1 1 1 1 1 1 1 1 1 1 1 1 1 2 2 2 2 2 2 2 2 1 1 1 1 2 2 2
0 0 0 0 0 0 1 1 1 2 2 2 3 3 2 2 1 1 1 0 0 1 1 2 2 2 1 1 1 1 1 1 1 1 2 2 2 2 2 2 2 1 1 1 1 1 1 1 1
0 0 0 0 0 0 1 1 1 2 2 2 2 2 2 1 1 0 0 0 1 1 2 3 2 2 1 1 1 1 1 1 1 1 1 1 1 1 1 1 1 1 1 0 0 1 1 1 1
0 0 0 0 0 0 1 1 2 2 2 2 2 2 1 1 0 0 0 0 1 2 3 3 2 1 1 1 1 1 1 1 1 1 1 1 0 1 1 1 1 0 0 0 0 1 1 1 1
0 0 0 0 0 0 1 2 2 2 2 2 2 1 1 1 1 0 0 1 1 2 3 3 2 1 1 1 1 1 1 1 1 1 1 0 0 1 1 0 0 0 0 0 0 0 0 0 1
0 0 0 0 0 1 1 2 2 2 2 2 2 1 1 1 1 1 1 1 2 2 3 2 2 1 1 1 1 1 1 1 1 1 1 0 0 0 0 1 0 0 0 0 1 0 0 0 0
0 0 0 0 0 1 1 2 2 2 1 1 1 1 2 2 1 1 1 1 2 2 2 2 2 1 1 1 1 1 1 1 1 1 1 1 1 0 0 1 1 1 1 1 1 1 0 0 0
0 0 0 0 0 1 1 1 2 2 1 1 1 1 2 2 1 1 1 1 1 2 2 2 2 1 1 1 1 1 1 1 0 0 0 1 1 1 1 1 1 1 1 1 1 1 1 1 1
0 0 0 0 0 0 1 1 2 2 1 1 1 1 1 1 1 1 1 1 1 1 1 1 2 2 2 1 1 1 1 1 0 0 0 1 1 1 1 1 1 1 1 1 1 1 1 1 1
0 0 0 0 0 0 0 1 1 1 1 1 1 1 1 1 1 1 1 1 1 1 1 1 2 2 2 1 1 1 1 1 1 1 1 1 1 1 1 1 1 1 1 1 2 1 1 1 1
0 0 0 0 0 0 0 0 1 1 1 1 1 1 1 2 1 1 1 1 1 1 1 1 2 2 2 2 1 1 1 1 1 1 1 1 1 1 1 1 1 1 1 2 2 2 2 1 1
0 0 0 0 0 0 0 1 1 1 1 1 1 1 2 2 1 1 1 1 1 1 1 1 1 2 2 2 2 2 1 1 1 1 1 1 1 1 1 1 1 1 1 2 2 2 1 1 1
0 0 0 0 0 0 0 1 1 1 1 1 1 1 2 2 1 1 1 1 1 1 1 1 1 1 2 2 2 2 1 1 1 1 1 1 1 1 1 1 1 1 1 1 2 2 1 1 1
0 0 0 0 0 0 0 1 1 1 1 1 1 2 2 2 1 1 1 1 1 1 1 1 1 1 1 2 2 2 1 1 1 1 1 1 1 1 1 1 1 1 1 2 2 2 1 1 2
0 0 0 0 0 0 0 1 1 1 1 1 1 2 2 2 1 1 1 1 1 1 1 1 2 2 1 1 1 1 2 2 2 2 2 2 2 2 2 2 2 2 2 2 2 2 2 3 3
0 0 0 0 0 0 0 1 1 1 1 1 2 2 2 2 2 1 1 1 1 1 2 2 2 2 2 1 1 2 2 3 3 3 4 5 4 3 3 2 2 2 3 3 3 3 3 3 3
0 0 0 0 0 0 0 1 1 1 1 1 2 2 2 2 2 1 1 1 1 2 2 3 2 2 2 2 2 2 3 3 3 4 5 6 6 4 3 2 2 3 3 3 4 4 4 4 4
Wind_Speed
12 9 7 6 4 7 13 11 10 8 8 9 8 7 9 10 9 9 7 6 5 6 7 8 7 7 8 8 8 9 9 9 10 11 12 12 13 13 14 15 16 16 16 17 17 17 17 16 16
8 6 7 4 4 10 12 10 11 10 8 7 7 7 9 10 9 8 7 6 5 6 7 8 7 6 7 8 8 9 9 10 11 11 11 12 12 13 14 15 15 16 17 17 17 17 16 15 15
6 7 5 3 10 12 12 10 10 9 7 5 6 7 8 8 7 7 7 6 6 6 7 9 6 6 7 7 8 9 10 10 11 11 11 11 12 12 14 15 15 16 16 16 16 16 15 15 14
6 6 2 7 15 14 12 10 8 8 8 7 7 9 9 8 6 8 8 6 7 7 7 10 6 6 6 7 8 9 9 10 11 11 11 11 12 12 13 14 14 15 15 15 15 14 14 13 13
6 2 6 12 14 12 10 9 6 8 8 8 8 11 11 8 9 10 8 6 6 7 7 10 7 6 7 7 8 9 10 10 11 11 11 12 12 12 12 13 13 14 14 14 13 13 12 12 11
3 1 7 12 13 10 9 7 7 9 9 8 9 11 10 8 8 8 7 6 6 7 7 9 8 7 7 7 8 8 9 10 11 11 11 12 12 11 11 12 12 13 12 12 12 12 11 11 10
3 6 10 12 11 10 8 6 7 8 9 8 6 9 9 9 8 8 7 7 6 6 7 6 8 8 8 8 8 9 9 10 10 10 11 11 11 11 11 11 11 11 11 11 11 10 10 9 9
3 2 10 10 10 11 8 7 7 7 9 7 3 6 9 10 8 7 7 6 6 6 6 5 5 6 7 9 9 8 9 9 10 10 10 10 10 10 10 10 10 10 10 10 10 9 9 9 9
5 3 10 10 9 10 8 8 8 7 9 6 6 8 12 12 10 8 7 6 5 5 4 4 5 5 5 7 9 8 9 8 8 9 9 6 6 7 7 11 10 10 10 10 10 9 9 9 9
2 7 11 8 8 10 8 7 8 7 9 8 10 11 12 11 9 7 7 6 6 5 4 4 4 4 4 5 6 4 5 6 5 5 6 5 5 5 7 10 10 9 9 9 9 8 8 6 6
3 8 8 8 8 9 9 8 6 6 7 8 10 13 12 10 8 7 6 5 5 4 4 4 4 3 3 3 3 3 3 4 5 6 5 4 4 5 5 5 6 7 7 6 7 6 4 4 4
5 7 7 8 8 8 8 8 6 6 9 8 10 12 11 9 8 6 6 5 5 4 4 4 5 4 3 2 3 3 3 3 3 4 4 4 3 3 4 3 4 4 3 3 3 3 4 3 3
5 7 7 8 8 7 7 7 6 8 9 10 11 11 10 9 7 6 5 5 4 4 3 4 4 4 3 2 1 3 3 2 4 3 3 3 3 3 4 3 2 3 3 4 3 3 3 2 3
5 8 8 8 8 7 7 7 5 8 10 11 11 10 9 8 7 6 5 5 4 4 3 4 4 4 4 3 2 2 2 2 2 3 3 2 3 3 3 4 3 3 3 3 3 3 3 2 2
7 8 8 7 6 6 6 6 6 10 11 11 11 9 8 7 7 6 5 4 4 4 4 4 4 4 3 3 2 2 2 3 2 3 3 2 3 3 3 3 3 3 3 3 3 3 2 3 3
7 7 6 7 6 5 7 5 9 10 11 10 10 9 8 7 6 6 5 4 4 4 4 4 3 4 4 3 1 1 2 2 2 2 2 3 2 3 2 2 2 3 2 2 2 2 2 2 1
7 3 3 7 6 5 6 3 9 10 10 10 9 9 8 8 7 6 6 5 5 4 4 4 3 4 4 4 3 2 2 1 1 2 2 2 2 3 2 2 2 2 2 2 2 3 1 1 1
2 1 2 3 6 7 6 3 8 10 10 9 9 9 8 8 8 7 6 6 6 5 5 4 5 4 4 3 3 2 2 2 1 2 2 2 2 3 2 3 3 2 2 2 2 2 2 1 1
3 3 0 3 4 6 5 4 7 10 10 9 9 9 9 8 8 7 7 6 6 6 6 5 5 5 4 3 3 3 3 2 2 2 3 3 2 3 2 2 3 2 2 2 3 3 3 3 2
5 5 2 5 4 4 4 4 6 9 10 9 9 9 9 9 9 9 8 7 7 7 6 6 6 6 5 3 2 2 1 2 2 2 2 2 2 2 3 2 2 2 2 3 3 3 2 2 3
6 5 2 3 5 6 4 5 7 8 8 9 9 9 10 10 11 10 9 9 8 8 7 6 6 6 5 4 4 3 3 3 3 3 3 2 2 2 1 2 2 2 3 3 3 3 4 3 3
7 3 3 5 7 4 5 3 6 7 9 9 10 10 10 11 11 11 10 10 9 8 8 7 7 6 5 5 4 4 3 2 2 2 2 2 2 2 3 3 2 2 2 3 4 3 3 4 3
3 3 5 6 7 5 5 6 3 6 7 9 10 10 10 11 11 11 11 10 9 9 8 8 7 7 6 5 5 4 4 3 3 3 3 2 2 2 3 3 3 3 2 2 2 2 3 3 3
7 6 6 7 8 7 3 6 1 3 4 5 8 10 10 10 11 11 10 10 9 9 8 8 8 7 7 7 6 5 4 3 3 3 3 3 2 2 2 2 2 2 2 2 3 3 4 3 3
11 9 7 8 8 5 3 5 1 2 1 3 6 9 10 10 10 11 11 11 10 10 9 9 8 8 8 8 7 6 5 5 5 4 4 3 2 2 2 2 2 1 2 2 2 3 3 3 4
12 13 10 8 7 4 6 5 1 2 2 2 4 7 10 10 10 10 11 11 11 11 10 10 9 8 8 8 7 7 7 5 4 4 3 3 2 2 3 3 3 2 2 2 1 2 2 3 3
12 12 11 10 9 7 5 4 4 4 4 5 6 7 9 10 10 10 10 11 11 11 11 10 10 9 8 8 8 7 7 5 4 5 4 3 3 3 4 3 3 3 2 2 2 1 2 2 3
9 9 8 10 9 9 7 7 4 4 4 5 6 7 8 9 9 10 10 10 10 10 10 9 9 9 8 8 7 6 7 6 5 5 5 4 3 3 4 4 4 3 3 3 2 2 2 2 2
10 11 10 9 9 10 8 3 1 2 4 5 6 6 7 8 8 9 9 9 10 9 9 9 9 9 8 8 7 6 6 6 6 5 5 5 5 5 5 4 4 4 3 3 3 3 2 3 3
11 12 12 10 9 9 10 3 2 2 3 4 4 5 6 6 7 8 9 9 9 9 9 9 9 9 8 7 7 7 6 6 6 6 6 5 5 5 5 5 4 4 4 4 4 4 3 3 3
Wind_Direction
180 190 218 236 209 76 67 63 62 69 67 62 57 52 56 43 33 69 83 83 83 90 90 92 72 64 65 68 72 82 83 87 90 90 93 95 98 99 98 103 104 105 109 114 115 116 119 119 120
179 197 230 239 58 76 70 64 65 62 74 86 76 68 70 66 58 87 99 90 92 86 87 80 80 71 71 74 77 83 86 91 90 90 94 97 99 100 101 103 103 105 106 109 111 114 116 117 117
191 232 264 61 57 64 74 72 77 79 75 75 79 62 55 68 76 86 95 111 103 89 87 87 80 77 75 78 83 88 90 93 93 94 95 98 100 101 103 106 107 109 109 109 109 112 115 118 120
224 219 207 72 72 66 76 81 87 91 80 73 88 84 75 62 70 94 112 117 108 104 96 91 80 79 79 83 87 91 94 95 96 96 98 101 103 102 109 109 111 112 113 113 113 114 117 119 122
245 252 89 80 76 75 77 79 70 74 78 83 87 94 88 79 92 108 118 119 109 100 95 95 85 79 82 90 92 94 96 98 99 98 101 103 101 98 105 109 110 112 113 113 113 113 115 117 119
237 53 72 78 83 87 87 85 81 80 91 96 99 100 90 106 113 115 115 110 103 102 98 99 105 88 88 95 97 96 98 100 99 98 101 105 103 103 104 108 111 111 112 112 112 113 117 121 123
343 57 70 79 90 93 87 84 77 87 92 89 96 98 109 119 117 120 115 109 102 95 97 104 116 118 115 100 96 97 100 100 99 98 100 104 105 105 104 106 112 114 113 112 112 113 116 121 125
310 71 80 78 83 90 104 96 83 88 90 97 93 99 117 125 131 126 122 118 107 99 94 97 94 103 119 116 106 101 100 102 103 104 107 110 113 113 114 115 111 116 113 113 112 111 112 117 125
259 71 72 70 78 100 120 113 99 94 107 101 81 85 111 129 139 139 132 123 111 101 93 92 98 103 110 110 115 123 118 113 122 118 119 132 120 114 121 103 109 112 113 115 112 112 115 124 128
285 64 69 67 76 106 121 112 119 129 119 114 110 109 124 139 147 146 137 133 127 121 117 103 95 97 105 106 116 123 119 115 112 108 119 118 109 107 108 113 115 115 116 121 121 128 148 168 137
66 67 85 95 94 108 122 121 129 126 108 114 127 134 142 145 148 144 133 125 118 124 117 115 108 109 112 111 116 103 105 110 115 111 118 113 122 125 123 125 129 132 144 137 139 162 149 124 106
99 88 99 108 114 119 118 121 119 87 87 113 130 139 146 151 146 141 134 130 124 122 114 106 110 109 100 99 110 123 121 119 113 116 124 123 120 118 115 127 127 137 135 133 143 128 118 115 120
117 111 111 119 126 118 122 115 107 105 109 125 133 143 151 150 143 139 135 133 134 137 134 119 114 117 126 127 140 114 112 111 116 116 119 131 135 126 123 120 126 132 133 146 138 117 118 129 139
113 123 125 132 130 138 137 125 128 122 131 137 144 150 153 151 149 147 151 151 151 151 144 129 133 130 134 139 138 123 130 132 121 125 120 140 122 119 130 139 139 135 136 127 137 135 140 146 130
144 141 141 147 154 154 167 142 134 136 148 150 152 153 153 157 160 163 160 164 157 154 150 148 151 137 136 137 143 135 137 125 116 112 125 135 127 127 146 138 151 133 133 143 152 144 157 158 154
177 184 158 151 177 173 226 116 135 153 164 161 159 159 164 165 170 167 163 171 165 159 156 166 161 143 145 135 126 119 107 105 122 129 128 132 129 145 159 139 136 138 166 165 154 175 162 146 153
194 201 119 140 184 188 226 119 140 167 175 171 171 169 172 168 175 170 170 172 173 169 166 166 163 158 157 150 153 148 125 122 135 130 128 132 146 159 172 146 130 178 173 178 192 149 176 154 153
186 202 136 138 167 203 215 162 149 175 186 181 179 178 178 177 176 174 177 173 173 174 175 173 172 167 170 166 163 163 159 167 151 138 136 147 151 162 169 156 154 185 171 174 169 152 173 185 187
267 259 217 104 153 203 214 201 174 177 192 191 188 186 186 184 172 173 179 180 176 176 178 180 181 170 181 181 190 173 167 168 154 151 144 161 167 158 174 175 151 185 175 183 173 179 177 184 168
230 236 191 136 157 215 208 211 189 188 197 201 198 194 194 187 178 178 184 184 184 181 183 185 186 181 189 176 183 178 162 166 149 137 133 162 173 176 172 175 186 176 177 184 182 186 213 194 189
223 246 254 153 164 200 223 195 183 187 199 203 209 205 199 196 188 184 188 190 188 185 188 189 184 183 189 180 182 172 172 189 164 156 153 162 169 170 170 181 207 191 210 193 199 202 211 214 204
220 228 228 196 214 191 242 257 159 180 193 202 206 206 202 195 193 189 188 190 190 187 184 183 180 183 182 187 194 194 188 177 151 164 143 152 166 178 183 192 201 210 215 202 215 198 218 224 217
226 190 213 219 241 249 220 267 133 169 200 200 199 199 198 192 190 189 189 187 187 184 180 176 178 180 181 187 182 195 199 186 169 166 154 177 166 186 186 186 194 206 217 212 229 210 228 226 239
169 173 188 221 239 245 239 264 205 163 205 194 185 188 191 188 186 187 185 182 185 181 179 175 175 181 181 185 184 192 192 193 183 183 177 185 171 179 172 184 198 215 229 219 218 221 218 230 236
206 217 223 225 228 232 171 248 285 77 153 195 180 179 181 182 181 182 183 181 184 183 181 177 174 180 184 187 189 189 191 192 194 204 188 196 184 172 161 177 187 207 210 227 230 217 232 225 220
219 237 246 259 256 221 189 233 163 122 144 171 179 175 175 178 180 181 183 183 184 185 182 181 180 185 187 188 188 190 192 198 192 197 206 192 194 177 161 176 181 182 196 206 207 232 223 216 225
219 231 252 257 257 258 225 209 209 184 187 178 172 172 175 179 179 180 181 184 184 185 185 185 184 187 189 190 188 189 194 200 190 184 200 196 192 180 171 181 182 184 190 201 204 216 230 214 220
250 233 231 247 249 254 240 229 219 193 194 182 179 177 174 176 177 179 180 181 182 183 181 185 186 190 192 191 192 185 188 192 192 196 190 190 186 180 180 190 193 194 196 198 213 204 205 213 217
204 218 231 244 255 260 257 239 76 196 203 196 184 177 170 171 172 172 175 178 178 179 177 181 186 189 192 194 191 190 187 188 189 194 192 189 187 182 187 193 199 203 205 204 210 223 207 213 215
228 228 223 234 240 252 268 255 95 165 196 188 173 161 160 165 167 167 168 170 176 180 181 181 186 188 191 187 186 186 186 188 193 191 190 185 182 185 184 191 198 204 204 206 210 219 212 219 226